TimeEDT,TemperatureF,Dew PointF,Humidity,Sea Level PressureIn,VisibilityMPH,Wind Direction,Wind SpeedMPH,Gust SpeedMPH,PrecipitationIn,Events,Conditions,WindDirDegrees,DateUTC
12:53 AM,69.1,60.1,73,29.96,10.0,South,13.8,-,N/A,,Mostly Cloudy,170,2013-04-19 04:53:00
1:53 AM,68.0,60.1,76,29.94,10.0,South,10.4,-,N/A,,Partly Cloudy,170,2013-04-19 05:53:00
2:53 AM,66.9,61.0,81,29.91,10.0,South,13.8,19.6,N/A,,Overcast,170,2013-04-19 06:53:00
3:00 AM,66.2,60.8,83,29.93,10.0,South,10.4,-,N/A,,Overcast,170,2013-04-19 07:00:00
3:15 AM,66.2,60.8,83,29.93,10.0,South,10.4,-,N/A,,Overcast,180,2013-04-19 07:15:00
3:53 AM,66.9,62.1,84,29.89,10.0,South,8.1,-,N/A,,Overcast,180,2013-04-19 07:53:00
4:53 AM,66.9,62.1,84,29.86,10.0,South,9.2,-,N/A,,Overcast,180,2013-04-19 08:53:00
5:53 AM,66.9,62.1,84,29.86,10.0,South,11.5,-,N/A,,Overcast,170,2013-04-19 09:53:00
6:53 AM,66.9,62.1,84,29.87,10.0,South,8.1,-,N/A,,Overcast,190,2013-04-19 10:53:00
7:53 AM,66.9,62.1,84,29.88,10.0,South,10.4,-,N/A,,Overcast,190,2013-04-19 11:53:00
8:53 AM,68.0,63.0,84,29.87,10.0,SSW,12.7,-,0.00,,Mostly Cloudy,210,2013-04-19 12:53:00
9:36 AM,69.8,64.4,83,29.87,10.0,South,16.1,24.2,0.01,,Mostly Cloudy,180,2013-04-19 13:36:00
9:53 AM,69.1,63.0,81,29.85,10.0,SSW,13.8,20.7,0.01,,Overcast,200,2013-04-19 13:53:00
10:43 AM,69.8,62.6,78,29.85,10.0,SSW,10.4,19.6,0.01,,Overcast,200,2013-04-19 14:43:00
10:53 AM,71.1,63.0,75,29.83,10.0,South,12.7,-,0.01,,Overcast,190,2013-04-19 14:53:00
11:43 AM,71.6,60.8,69,29.83,10.0,SSW,13.8,24.2,0.00,,Overcast,200,2013-04-19 15:43:00
11:53 AM,72.0,62.1,71,29.80,10.0,South,13.8,21.9,0.00,Rain,Light Rain,190,2013-04-19 15:53:00
12:00 PM,71.6,60.8,69,29.82,10.0,SSW,17.3,25.3,0.00,,Overcast,200,2013-04-19 16:00:00
12:53 PM,72.0,63.0,73,29.78,10.0,SSW,15.0,26.5,0.00,Rain,Light Rain,200,2013-04-19 16:53:00
1:53 PM,72.0,63.0,73,29.79,10.0,SSW,15.0,28.8,0.00,Rain,Light Rain,200,2013-04-19 17:53:00
2:17 PM,69.8,64.4,83,29.83,1.2,WSW,20.7,28.8,0.15,Rain,Heavy Rain,240,2013-04-19 18:17:00
2:28 PM,66.2,62.6,88,29.83,3.0,WSW,15.0,27.6,0.20,Rain,Rain,240,2013-04-19 18:28:00
2:53 PM,66.0,63.0,90,29.81,4.0,SW,9.2,-,0.26,Rain,Rain,220,2013-04-19 18:53:00
3:06 PM,66.2,62.6,88,29.83,5.0,SW,10.4,-,0.04,Rain,Rain,230,2013-04-19 19:06:00
3:16 PM,64.4,62.6,94,29.84,2.0,SW,18.4,24.2,0.12,Rain,Heavy Rain,230,2013-04-19 19:16:00
3:24 PM,64.4,62.6,94,29.84,2.0,WSW,11.5,29.9,0.19,Rain,Heavy Rain,240,2013-04-19 19:24:00
3:28 PM,64.4,62.6,94,29.84,3.0,SW,10.4,-,0.20,Rain,Heavy Rain,230,2013-04-19 19:28:00
3:49 PM,62.6,60.8,94,29.84,8.0,SW,15.0,26.5,0.24,Rain,Rain,220,2013-04-19 19:49:00
3:53 PM,63.0,60.1,90,29.82,7.0,SW,13.8,26.5,0.25,Rain,Rain,230,2013-04-19 19:53:00
4:11 PM,60.8,57.2,88,29.84,8.0,SW,13.8,24.2,0.03,Rain,Rain,230,2013-04-19 20:11:00
4:21 PM,60.8,57.2,88,29.84,10.0,SW,12.7,18.4,0.04,Rain,Light Rain,220,2013-04-19 20:21:00
4:53 PM,60.1,55.9,86,29.80,10.0,SSW,9.2,-,0.05,,Scattered Clouds,210,2013-04-19 20:53:00
5:53 PM,57.0,52.0,83,29.82,10.0,WSW,18.4,26.5,0.00,,Scattered Clouds,240,2013-04-19 21:53:00
6:15 PM,55.4,51.8,88,29.82,10.0,WSW,10.4,24.2,0.00,Rain,Light Rain,240,2013-04-19 22:15:00
6:53 PM,55.0,52.0,89,29.82,10.0,SW,13.8,18.4,0.02,Rain,Light Rain,230,2013-04-19 22:53:00
7:53 PM,54.0,51.1,90,29.82,10.0,SW,9.2,-,0.00,,Overcast,220,2013-04-19 23:53:00
8:53 PM,53.1,50.0,89,29.84,10.0,Variable,5.8,-,N/A,,Overcast,0,2013-04-20 00:53:00
9:53 PM,52.0,48.9,89,29.90,10.0,SW,10.4,-,N/A,,Overcast,230,2013-04-20 01:53:00
10:53 PM,51.1,48.0,89,29.92,10.0,WSW,8.1,-,N/A,,Scattered Clouds,240,2013-04-20 02:53:00
11:53 PM,51.1,46.9,86,29.94,10.0,Calm,Calm,-,N/A,,Partly Cloudy,0,2013-04-20 03:53:00